Location: Unspecified
(49.9820°N, 20.4363°E)
Time: 05:37:16
(UTC+02:00)

Altair - All Passes

Search period start: 14 May 2026 00:00
Search period end: 24 May 2026 00:00
Orbit: 1501 x 1682 km, 47.2° (Epoch: 13 May)

Date Brightness Start Highest point End Pass type
(mag) Time Alt. Az. Time Alt. Az. Time Alt. Az.
14 May - 03:24:27 10° SE 03:26:38 11° ESE 03:28:49 10° ESE visible
14 May - 05:20:12 10° SSW 05:29:01 38° SE 05:37:59 10° ENE daylight
14 May - 07:22:54 10° WSW 07:32:51 69° SSE 07:42:56 10° E daylight
14 May - 09:27:22 10° W 09:37:31 76° S 09:47:36 10° ESE daylight
14 May - 11:32:08 10° WNW 11:41:46 50° SSW 11:51:15 10° SE daylight
14 May - 13:38:14 10° W 13:44:44 19° SW 13:51:08 10° SSW daylight
15 May - 04:55:15 10° SSW 05:03:52 35° SE 05:12:39 10° ENE daylight
15 May - 06:57:42 10° WSW 07:07:36 67° SSE 07:17:40 10° E daylight
15 May - 09:02:06 10° W 09:12:14 77° S 09:22:22 10° ESE daylight
15 May - 11:06:52 10° WNW 11:16:34 52° SSW 11:26:09 10° SE daylight
15 May - 13:12:42 10° W 13:19:38 21° SW 13:26:30 10° S daylight
16 May - 04:30:20 10° SSW 04:38:43 33° SE 04:47:18 10° E daylight
16 May - 06:32:31 10° WSW 06:42:22 65° SSE 06:52:23 10° E daylight
16 May - 08:36:51 10° W 08:46:58 77° S 08:57:06 10° E daylight
16 May - 10:41:35 10° W 10:51:21 55° SSW 11:01:02 10° SE daylight
16 May - 12:47:12 10° W 12:54:32 23° SW 13:01:48 10° S daylight
17 May - 04:05:26 10° SSW 04:13:35 31° SE 04:21:56 10° E visible
17 May - 06:07:21 10° SW 06:17:08 63° SSE 06:27:07 10° E daylight
17 May - 08:11:35 10° W 08:21:41 77° S 08:31:51 10° E daylight
17 May - 10:16:18 10° W 10:26:08 57° SSW 10:35:54 10° SE daylight
17 May - 12:21:45 10° W 12:29:27 25° SW 12:37:02 10° S daylight
18 May - 03:40:34 10° S 03:48:28 29° SE 03:56:33 10° E visible
18 May - 05:42:12 10° SW 05:51:54 61° SSE 06:01:50 10° E daylight
18 May - 07:46:21 10° W 07:56:25 78° S 08:06:35 10° E daylight
18 May - 09:51:02 10° W 10:00:55 60° SSW 10:10:45 10° SE daylight
18 May - 11:56:20 10° W 12:04:19 27° SW 12:12:14 10° S daylight
19 May - 03:15:45 10° S 03:23:22 26° SE 03:31:08 10° E visible
19 May - 05:17:03 10° SW 05:26:41 59° SSE 05:36:32 10° E daylight
19 May - 07:21:06 10° W 07:31:08 78° S 07:41:18 10° E daylight
19 May - 09:25:46 10° W 09:35:41 62° SSW 09:45:35 10° SE daylight
19 May - 11:30:57 10° W 11:39:12 30° SW 11:47:23 10° S daylight
20 May - 02:50:59 10° S 02:58:16 24° SE 03:05:42 10° E visible
20 May - 04:51:56 10° SW 05:01:28 56° SSE 05:11:16 10° E daylight
20 May - 06:55:52 10° W 07:05:52 77° S 07:16:03 10° E daylight
20 May - 09:00:30 10° W 09:10:26 64° SSW 09:20:24 10° ESE daylight
20 May - 11:05:35 10° W 11:14:03 32° SW 11:22:30 10° SSE daylight
21 May - 02:26:16 10° S 02:33:10 22° SE 02:40:13 10° E visible
21 May - 04:26:49 10° SW 04:36:15 54° SSE 04:45:58 10° ENE daylight
21 May - 06:30:37 10° WSW 06:40:36 77° S 06:50:46 10° E daylight
21 May - 08:35:15 10° W 08:45:12 66° SSW 08:55:12 10° ESE daylight
21 May - 10:40:14 10° W 10:48:55 34° SW 10:57:35 10° SSE daylight
22 May - 02:01:37 10° S 02:08:05 20° SE 02:14:41 10° E visible
22 May - 04:01:44 10° SW 04:11:04 51° SSE 04:20:41 10° ENE visible
22 May - 06:05:24 10° WSW 06:15:19 76° S 06:25:29 10° E daylight
22 May - 08:10:00 10° W 08:19:57 68° SSW 08:30:00 10° ESE daylight
22 May - 10:14:53 10° WNW 10:23:46 36° SW 10:32:37 10° SSE daylight
22 May - 12:25:42 10° WSW 12:26:08 10° WSW 12:26:34 10° WSW daylight
23 May - 01:37:01 10° SSE 01:43:01 18° SE 01:49:07 10° E visible
23 May - 03:36:41 10° SW 03:45:52 49° SSE 03:55:23 10° ENE visible
23 May - 05:40:10 10° WSW 05:50:04 75° S 06:00:13 10° E daylight
23 May - 07:44:44 10° W 07:54:42 70° SSW 08:04:47 10° ESE daylight
23 May - 09:49:35 10° WNW 09:58:37 39° SW 10:07:37 10° SSE daylight
23 May - 11:58:05 10° WSW 12:01:06 12° WSW 12:04:06 10° SW daylight
